Home > Weather > Viernheim > Past weeks

Flag for Germany Past Weather in Viernheim, Hesse, Germany — Yesterday and Last 2 Weeks

Now
70 °F

Partly sunny.


Feels Like: 70 °F
Forecast: 64 / 81 °F
Wind: 2 mph from North

Location: Mannheim City

Current Time: Jul 24, 2016 at 11:01:06 AM

Latest Report: Jul 24, 2016 at 10:20 AM


Visibility: 4 mi

Pressure: 30.09 "Hg

Humidity: 100%

Dew Point: 70 °F

Location of ViernheimLocation

Past Weather in Viernheim — Graph

°F

Viernheim Temperature Yesterday

Maximum temperature yesterday: 81 °F (at 5:20 PM)
Minimum temperature yesterday: 66 °F (at 7:20 AM)
Average temperature yesterday: 74 °F

High & Low Weather Summary for the Past Weeks

 TemperatureHumidityPressure
High95 °F (Jul 20, 4:50 PM)100% (Jul 13, 5:50 AM)30.33 "Hg (Jul 13, 5:50 AM)
Low55 °F (Jul 16, 7:20 AM)20% (Jul 20, 5:50 PM)29.83 "Hg (Jul 10, 6:20 PM)
Average74 °F60%30.06 "Hg
* Reported Jul 9 9:20 AM — Jul 24 9:50 AM, Viernheim, Weather by CustomWeather, © 2016

Note: Actual official high and low records may vary slightly from our data, if they occured in-between our weather recording intervals... More about our weather records

Advertising

Viernheim Weather History for the Previous 24 Hours

Scroll right to see more
 ConditionsComfort  
Time TempWeatherWind HumidityBarometerVisibility
9:50 AM
Sun, Jul 24
68 °FLight rain. Partly sunny.5 mph100%30.09 "Hg4 mi
9:20 AM70 °FLight rain. Low clouds.3 mph100%30.09 "Hg4 mi
8:50 AM70 °FLight rain. Low clouds.3 mph100%30.09 "Hg4 mi
8:20 AM70 °FLight rain. Broken clouds.2 mph100%30.07 "Hg5 mi
7:50 AM68 °FPartly sunny.2 mph100%30.07 "Hg4 mi
4:50 AM70 °FMostly cloudy.3 mph100%30.07 "Hg4 mi
4:20 AM70 °FMostly cloudy.2 mph100%30.07 "Hg6 mi
7:20 PM
Sat, Jul 23
75 °FPassing clouds.8 mph69%30.01 "HgN/A
6:50 PM75 °FScattered clouds.7 mph74%30.04 "HgN/A
6:20 PM75 °FPartly sunny.7 mph78%30.04 "HgN/A
5:50 PM75 °FPartly sunny.10 mph74%30.01 "HgN/A
5:20 PM81 °FScattered clouds.6 mph58%30.01 "HgN/A
4:50 PM79 °FScattered clouds.5 mph61%30.04 "HgN/A
4:20 PM79 °FPartly sunny.5 mph65%30.04 "HgN/A
3:50 PM77 °FScattered clouds.2 mph61%30.04 "HgN/A
3:20 PM77 °FPassing clouds.3 mph65%30.04 "HgN/A
2:50 PM77 °FScattered clouds.2 mph65%30.04 "HgN/A
2:20 PM73 °FBroken clouds.6 mph83%30.04 "HgN/A
1:50 PM73 °FBroken clouds.6 mph78%30.04 "HgN/A
1:20 PM73 °FPartly sunny.5 mph74%30.04 "HgN/A
12:50 PM73 °FBroken clouds.3 mph74%30.04 "HgN/A
12:20 PM73 °FPartly sunny.3 mph74%30.04 "HgN/A
11:50 AM73 °FPartly sunny.3 mph74%30.04 "HgN/A
11:20 AM73 °FScattered clouds.3 mph69%30.04 "HgN/A
Weather by CustomWeather, © 2016

See weather overviewHow to use our weather pages